Location: Aufkirchen
(47.9603°N, 11.3653°E)
Time: 10:25:00
(UTC+01:00)

Tiros 1 - Pass Details

Date: 26 November 2020
Orbit: 630 x 663 km, 48.4° (Epoch: 28 January)

Event Time Altitude Azimuth Distance (km) Brightness Sun altitude
Rises 19:59:11 0° 278° (W) 2,984 11.6 -35.0°
Reaches altitude 10° 20:01:32 10° 278° (W) 2,068 10.5 -35.4°
Enters shadow 20:03:14 22° 278° (W) 1,427 9.5 -35.6°
Maximum altitude 20:06:19 90° 220° (SW) 657 - -36.2°
Drops below altitude 10° 20:11:03 10° 100° (E) 2,044 - -36.9°
Sets 20:13:22 0° 100° (E) 2,948 - -37.3°
